Regional Weather Roundup
Issued by NWS Goodland, KS

Home | Current Version | Previous Version | Text Only | Print | Product List | Glossary Off
Versions: 1 2 3 4 5 6 7 8 9 10 11 12 13 14 15 16 17 18 19 20 21 22 23 24 25 26 27 28 29 30 31 32 33 34 35 36 37 38 39 40 41 42 43 44 45 46 47 48 49 50

000
ASUS43 KGLD 131559
RWRGLD

GOODLAND FORECAST AREA HOURLY WEATHER ROUNDUP
NATIONAL WEATHER SERVICE GOODLAND KS
900 AM MST SAT FEB 13 2016

...OFFICIAL OBSERVATIONS...

CITY           SKY/WX    TMP DP  RH WIND       PRES   REMARKS
GOODLAND KS    FOG       25  24  96 S21       30.19F VSB 1/4 WCI  11
HILL CITY KS   CLOUDY    22  15  75 SE15      30.36F WCI   9
IMPERIAL NEB   CLOUDY    25  24  96 S18       30.19F WCI  11
MCCOOK NEB     CLOUDY    21  17  84 SE18      30.29F WCI   6
AKRON CO       CLOUDY    30  29  96 S8        30.09R
BURLINGTON CO  FOG       26  24  92 S17       30.16F VSB 1/2 WCI  13
LIMON CO       CLOUDY    27  27 100 S6        30.10F FOG
$$

...UNOFFICIAL OBSERVATIONS...

CITY           SKY/WX    TMP DP  RH WIND       PRES   REMARKS
COLBY KS       CLOUDY    25  25 100 SE16      30.25F FOG     WCI  12
GOVE KS          N/A     23  32 100 MISG        N/A
LENORA KS        N/A     20  32 100 MISG        N/A
NORTON KS      CLOUDY    19  12  73 SE15      30.33  WCI   5
SHARON SPRINGS   N/A     25  24  93 S9          N/A
KIT CARSON CO    N/A     25  23  91 MISG        N/A
YUMA CO          N/A     28  27  95 S8          N/A
$$



USA.gov is the U.S. government's official web portal to all federal, state and local government web resources and services.